BOV557 SLVR-SLCB

Flight info

Callsign BOV557
Flight time 0h 33m
Altitude 28000
Route KOSBO UT712 PORKI
Aircraft B738/M-SDE2E3FGHIRWXY/LB1

Departure

Time 2026-04-26 14:39
Airport Viru Viru International Airport (SLVR)

Arrival

Time 2026-04-26 15:13
Airport Jorge Wilsterman International Airport (SLCB)
Time Latitude Longitude Altitude Speed Heading
2026-04-26 14:01 -17.64763 -63.13973 1230 ft 0 kts 237°
2026-04-26 14:12 -17.64762 -63.13973 1230 ft 0 kts 237°
2026-04-26 14:21 -17.64762 -63.13972 1230 ft 0 kts 237°
2026-04-26 14:28 -17.64753 -63.13958 1230 ft 5 kts 237°
2026-04-26 14:28 -17.64739 -63.13934 1230 ft 10 kts 240°
2026-04-26 14:28 -17.64726 -63.13909 1230 ft 10 kts 237°
2026-04-26 14:28 -17.64727 -63.13896 1230 ft 9 kts 151°
2026-04-26 14:29 -17.64713 -63.13905 1230 ft 9 kts 146°
2026-04-26 14:29 -17.64707 -63.13909 1230 ft 38 kts 146°
2026-04-26 14:34 -17.64707 -63.13910 1230 ft 0 kts 146°
2026-04-26 14:35 -17.64727 -63.13895 1230 ft 7 kts 146°
2026-04-26 14:35 -17.64768 -63.13866 1230 ft 8 kts 146°
2026-04-26 14:35 -17.64817 -63.13834 1230 ft 9 kts 148°
2026-04-26 14:35 -17.64870 -63.13797 1230 ft 9 kts 138°
2026-04-26 14:36 -17.64874 -63.13731 1230 ft 10 kts 60°
2026-04-26 14:36 -17.64835 -63.13667 1230 ft 11 kts 60°
2026-04-26 14:36 -17.64794 -63.13595 1230 ft 12 kts 73°
2026-04-26 14:36 -17.64838 -63.13529 1230 ft 13 kts 148°
2026-04-26 14:37 -17.64916 -63.13477 1230 ft 15 kts 147°
2026-04-26 14:37 -17.65011 -63.13413 1230 ft 17 kts 148°
2026-04-26 14:37 -17.65118 -63.13342 1230 ft 12 kts 146°
2026-04-26 14:37 -17.65162 -63.13275 1230 ft 12 kts 88°
2026-04-26 14:38 -17.65124 -63.13203 1230 ft 11 kts 53°
2026-04-26 14:38 -17.65075 -63.13144 1230 ft 11 kts 22°
2026-04-26 14:38 -17.65025 -63.13167 1230 ft 0 kts 326°
2026-04-26 14:38 -17.65014 -63.13175 1230 ft 16 kts 327°
2026-04-26 14:39 -17.64517 -63.13511 1232 ft 109 kts 328°
2026-04-26 14:39 -17.63712 -63.14051 1240 ft 162 kts 324°
2026-04-26 14:39 -17.62720 -63.14671 1806 ft 164 kts 328°
2026-04-26 14:39 -17.61729 -63.15243 2580 ft 156 kts 324°
2026-04-26 14:40 -17.61063 -63.16049 3344 ft 154 kts 294°
2026-04-26 14:40 -17.60890 -63.17257 3623 ft 184 kts 274°
2026-04-26 14:40 -17.61086 -63.18686 3839 ft 211 kts 259°
2026-04-26 14:40 -17.61563 -63.20225 4001 ft 233 kts 255°
2026-04-26 14:41 -17.62131 -63.21901 4146 ft 255 kts 255°
2026-04-26 14:41 -17.62744 -63.23686 4672 ft 264 kts 255°
2026-04-26 14:41 -17.63367 -63.25499 5440 ft 264 kts 255°
2026-04-26 14:41 -17.63989 -63.27320 6200 ft 267 kts 255°
2026-04-26 14:42 -17.64615 -63.29170 6901 ft 271 kts 255°
2026-04-26 14:42 -17.65246 -63.31045 7621 ft 274 kts 255°
2026-04-26 14:42 -17.65880 -63.32938 8368 ft 276 kts 255°
2026-04-26 14:42 -17.66520 -63.34856 9122 ft 280 kts 255°
2026-04-26 14:43 -17.67164 -63.36791 9938 ft 282 kts 255°
2026-04-26 14:43 -17.67817 -63.38755 10548 ft 291 kts 255°
2026-04-26 14:43 -17.68493 -63.40792 11197 ft 298 kts 254°
2026-04-26 14:43 -17.69177 -63.42854 11951 ft 302 kts 254°
2026-04-26 14:44 -17.69871 -63.44943 12719 ft 306 kts 253°
2026-04-26 14:44 -17.70574 -63.47064 13465 ft 310 kts 253°
2026-04-26 14:44 -17.71286 -63.49213 14187 ft 313 kts 253°
2026-04-26 14:44 -17.72006 -63.51387 14841 ft 318 kts 253°
2026-04-26 14:45 -17.72734 -63.53587 15583 ft 320 kts 252°
2026-04-26 14:45 -17.73221 -63.55058 16039 ft 323 kts 253°
2026-04-26 14:45 -17.74204 -63.58028 16999 ft 327 kts 253°
2026-04-26 14:45 -17.74957 -63.60307 17611 ft 334 kts 253°
2026-04-26 14:46 -17.75719 -63.62615 18319 ft 337 kts 252°
2026-04-26 14:46 -17.76494 -63.64962 18887 ft 341 kts 253°
2026-04-26 14:46 -17.77271 -63.67319 19490 ft 344 kts 253°
2026-04-26 14:46 -17.78059 -63.69707 20065 ft 348 kts 254°
2026-04-26 14:47 -17.78635 -63.72173 20572 ft 350 kts 269°
2026-04-26 14:47 -17.78467 -63.74711 21189 ft 350 kts 279°
2026-04-26 14:47 -17.78074 -63.77254 21697 ft 357 kts 281°
2026-04-26 14:47 -17.77633 -63.79830 22309 ft 359 kts 282°
2026-04-26 14:48 -17.77184 -63.82420 22880 ft 363 kts 283°
2026-04-26 14:48 -17.76740 -63.85018 23656 ft 361 kts 283°
2026-04-26 14:48 -17.76301 -63.87620 24204 ft 364 kts 281°
2026-04-26 14:48 -17.75862 -63.90256 24607 ft 369 kts 281°
2026-04-26 14:49 -17.75425 -63.92907 25156 ft 370 kts 281°
2026-04-26 14:49 -17.74985 -63.95600 25494 ft 377 kts 281°
2026-04-26 14:49 -17.74540 -63.98335 25921 ft 381 kts 281°
2026-04-26 14:49 -17.74094 -64.01081 26399 ft 385 kts 280°
2026-04-26 14:50 -17.73644 -64.03854 26861 ft 388 kts 280°
2026-04-26 14:50 -17.73343 -64.05705 27188 ft 389 kts 280°
2026-04-26 14:50 -17.72887 -64.08511 27648 ft 391 kts 279°
2026-04-26 14:50 -17.72275 -64.12267 28085 ft 395 kts 279°
2026-04-26 14:51 -17.71968 -64.14154 28097 ft 395 kts 279°
2026-04-26 14:51 -17.70898 -64.20704 28107 ft 387 kts 279°
2026-04-26 14:52 -17.70248 -64.24675 28134 ft 389 kts 279°
2026-04-26 14:52 -17.69329 -64.30282 28134 ft 391 kts 279°
2026-04-26 14:53 -17.68404 -64.35918 28145 ft 393 kts 279°
2026-04-26 14:53 -17.67459 -64.41669 28153 ft 414 kts 279°
2026-04-26 14:53 -17.66962 -64.44688 28155 ft 425 kts 279°
2026-04-26 14:54 -17.66454 -64.47768 28151 ft 434 kts 279°
2026-04-26 14:54 -17.65408 -64.54130 28163 ft 450 kts 278°
2026-04-26 14:55 -17.65207 -64.60769 28166 ft 462 kts 268°
2026-04-26 14:55 -17.65480 -64.67533 28150 ft 457 kts 268°
2026-04-26 14:55 -17.65599 -64.70817 28152 ft 446 kts 268°
2026-04-26 14:56 -17.65692 -64.74055 28181 ft 445 kts 268°
2026-04-26 14:56 -17.65832 -64.80605 28191 ft 452 kts 269°
2026-04-26 14:57 -17.65947 -64.87181 28189 ft 455 kts 269°
2026-04-26 14:57 -17.66061 -64.93768 28088 ft 449 kts 269°
2026-04-26 14:57 -17.66117 -64.97041 27743 ft 447 kts 269°
2026-04-26 14:58 -17.66173 -65.00276 27305 ft 441 kts 269°
2026-04-26 14:58 -17.66228 -65.03478 26888 ft 437 kts 269°
2026-04-26 14:58 -17.66281 -65.06645 26461 ft 433 kts 269°
2026-04-26 14:58 -17.66334 -65.09788 26032 ft 429 kts 270°
2026-04-26 14:59 -17.66386 -65.12904 25623 ft 426 kts 270°
2026-04-26 14:59 -17.66438 -65.16007 25186 ft 424 kts 270°
2026-04-26 14:59 -17.66488 -65.19081 24747 ft 422 kts 270°
2026-04-26 14:59 -17.66521 -65.21119 24464 ft 420 kts 270°
2026-04-26 15:00 -17.66591 -65.25201 23950 ft 416 kts 270°
2026-04-26 15:00 -17.66646 -65.28231 23471 ft 414 kts 270°
2026-04-26 15:00 -17.66702 -65.31240 23007 ft 411 kts 270°
2026-04-26 15:00 -17.66755 -65.34150 22561 ft 397 kts 270°
2026-04-26 15:01 -17.66807 -65.36992 22163 ft 382 kts 270°
2026-04-26 15:01 -17.66854 -65.39717 21766 ft 368 kts 271°
2026-04-26 15:01 -17.66901 -65.42360 21403 ft 356 kts 271°
2026-04-26 15:01 -17.66946 -65.44914 21019 ft 345 kts 270°
2026-04-26 15:02 -17.66989 -65.47391 20689 ft 335 kts 270°
2026-04-26 15:02 -17.67030 -65.49804 20348 ft 327 kts 270°
2026-04-26 15:02 -17.67074 -65.52155 20011 ft 319 kts 270°
2026-04-26 15:02 -17.67118 -65.54457 19687 ft 313 kts 270°
2026-04-26 15:03 -17.67160 -65.56723 19349 ft 309 kts 270°
2026-04-26 15:03 -17.67201 -65.58961 19045 ft 307 kts 270°
2026-04-26 15:03 -17.67242 -65.61239 18692 ft 316 kts 269°
2026-04-26 15:03 -17.67284 -65.63573 18090 ft 320 kts 269°
2026-04-26 15:04 -17.67326 -65.65882 17657 ft 314 kts 269°
2026-04-26 15:04 -17.67368 -65.68142 17325 ft 305 kts 269°
2026-04-26 15:04 -17.67408 -65.70336 17081 ft 295 kts 269°
2026-04-26 15:04 -17.67447 -65.72453 16986 ft 289 kts 269°
2026-04-26 15:05 -17.67484 -65.74531 16824 ft 287 kts 269°
2026-04-26 15:05 -17.67509 -65.75941 16751 ft 286 kts 269°
2026-04-26 15:05 -17.67558 -65.78696 16601 ft 282 kts 269°
2026-04-26 15:05 -17.67594 -65.80758 16459 ft 276 kts 269°
2026-04-26 15:06 -17.67629 -65.82744 16371 ft 270 kts 269°
2026-04-26 15:06 -17.67663 -65.84679 16252 ft 259 kts 269°
2026-04-26 15:06 -17.67692 -65.86511 16058 ft 252 kts 271°
2026-04-26 15:06 -17.67278 -65.88278 15735 ft 253 kts 299°
2026-04-26 15:07 -17.65013 -65.91159 14994 ft 258 kts 311°
2026-04-26 15:07 -17.63786 -65.92542 14560 ft 261 kts 311°
2026-04-26 15:07 -17.62556 -65.93947 14159 ft 262 kts 311°
2026-04-26 15:08 -17.61329 -65.95364 13697 ft 264 kts 311°
2026-04-26 15:08 -17.60096 -65.96791 13263 ft 263 kts 310°
2026-04-26 15:08 -17.58878 -65.98207 12884 ft 260 kts 311°
2026-04-26 15:08 -17.57680 -65.99600 12575 ft 255 kts 311°
2026-04-26 15:09 -17.56497 -66.00982 12337 ft 254 kts 312°
2026-04-26 15:09 -17.55327 -66.02343 11980 ft 249 kts 312°
2026-04-26 15:09 -17.54181 -66.03677 11580 ft 242 kts 312°
2026-04-26 15:09 -17.53080 -66.04961 11204 ft 230 kts 313°
2026-04-26 15:10 -17.52056 -66.06157 10928 ft 210 kts 314°
2026-04-26 15:10 -17.51425 -66.06893 10751 ft 199 kts 314°
2026-04-26 15:10 -17.50243 -66.08268 10437 ft 182 kts 314°
2026-04-26 15:10 -17.49421 -66.09222 10268 ft 176 kts 313°
2026-04-26 15:11 -17.48573 -66.10205 9986 ft 181 kts 314°
2026-04-26 15:11 -17.47742 -66.11175 9747 ft 178 kts 313°
2026-04-26 15:11 -17.46919 -66.12131 9493 ft 175 kts 314°
2026-04-26 15:11 -17.46092 -66.13091 9259 ft 179 kts 313°
2026-04-26 15:12 -17.45275 -66.14057 9175 ft 175 kts 313°
2026-04-26 15:12 -17.44476 -66.14980 8947 ft 170 kts 314°
2026-04-26 15:12 -17.43664 -66.15917 8673 ft 175 kts 313°
2026-04-26 15:12 -17.42854 -66.16850 8382 ft 166 kts 314°
2026-04-26 15:13 -17.42152 -66.17662 8362 ft 125 kts 312°
2026-04-26 15:13 -17.41729 -66.18156 8360 ft 48 kts 310°
2026-04-26 15:13 -17.41630 -66.18212 8361 ft 13 kts 33°
2026-04-26 15:13 -17.41561 -66.18158 8360 ft 12 kts 40°
2026-04-26 15:14 -17.41502 -66.18099 8360 ft 11 kts 45°
2026-04-26 15:14 -17.41481 -66.18079 8361 ft 1 kts 44°
2026-04-26 15:14 -17.41477 -66.18074 8361 ft 1 kts 44°
2026-04-26 15:14 -17.41473 -66.18069 8360 ft 1 kts 57°
2026-04-26 15:15 -17.41474 -66.18063 8360 ft 1 kts 96°
2026-04-26 15:15 -17.41477 -66.18058 8360 ft 1 kts 120°
2026-04-26 15:15 -17.41481 -66.18052 8360 ft 1 kts 127°
2026-04-26 15:15 -17.41502 -66.18016 8361 ft 8 kts 87°
2026-04-26 15:16 -17.41480 -66.17985 8361 ft 0 kts 42°
2026-04-26 15:16 -17.41462 -66.17969 8361 ft 0 kts 40°
2026-04-26 15:25 -17.41463 -66.17969 8361 ft 0 kts 40°